Wind_Speed
20 19 19 19 20 19 17 15 14 14 13 12 12 13 14 14 15 15 17 17 18 19 20 20 21 22 23 24 25 26 26 26 26 26 27 27 28 28 29 30 32 33
20 19 19 20 20 19 16 15 15 14 13 13 14 14 14 14 15 16 17 18 19 19 20 22 24 25 26 27 27 28 28 29 29 29 30 30 31 31 32 32 33 34
20 20 20 20 20 18 17 16 15 14 14 15 15 15 15 15 15 15 16 17 17 19 21 22 24 27 29 29 29 29 29 30 30 30 30 32 33 33 33 34 34 36
21 20 20 20 19 18 17 17 15 15 15 16 15 14 14 15 15 16 16 17 18 21 22 22 25 29 31 31 31 31 30 29 28 28 30 32 33 34 33 32 33 35
21 21 20 20 19 19 18 17 16 15 15 15 14 14 14 15 15 16 17 18 20 21 22 24 28 29 30 31 31 30 29 27 27 28 30 32 33 33 33 32 33 35
21 20 20 20 19 19 18 17 16 14 14 14 14 14 15 14 14 16 18 19 21 22 22 24 25 25 25 28 29 28 27 27 28 29 30 31 33 34 35 34 33 34
20 20 20 19 19 18 17 16 15 14 14 14 15 16 16 15 16 18 19 20 20 20 20 21 22 23 23 25 28 29 29 28 29 31 33 34 35 37 37 36 34 33
20 19 19 18 17 16 16 15 14 14 15 16 16 17 17 17 18 18 17 16 17 17 19 20 21 23 24 24 26 29 29 30 31 33 36 37 37 37 37 37 35 34
19 18 18 17 15 15 15 14 14 15 16 16 16 16 16 17 16 15 15 16 17 18 20 21 22 24 26 26 27 28 29 30 31 33 36 37 38 38 38 36 34 33
17 16 16 15 14 14 14 14 15 15 16 16 16 16 16 16 16 16 17 19 20 21 23 25 26 27 29 30 30 30 30 31 32 34 35 36 36 38 38 36 33 31
15 15 14 13 13 13 14 14 14 15 16 17 17 17 17 18 19 20 22 23 23 24 25 27 28 29 31 32 33 33 32 33 34 34 34 35 35 36 37 37 34 31
14 14 13 13 13 14 14 14 15 15 17 18 19 19 19 21 22 24 25 26 26 27 27 28 30 32 35 37 37 36 34 34 33 31 32 34 35 36 36 37 36 33
14 13 12 13 13 14 14 15 16 16 15 16 18 20 21 22 23 24 25 27 29 30 31 33 35 37 40 41 41 39 37 35 32 30 31 34 36 37 37 38 38 36
13 13 12 12 13 15 15 16 16 16 15 14 16 20 22 23 22 22 24 27 30 32 34 35 37 39 40 41 41 40 38 35 32 31 33 34 35 37 38 39 39 38
13 11 11 12 14 15 17 17 17 16 16 15 16 19 21 23 24 24 26 29 31 33 34 35 36 38 38 39 39 38 37 36 35 35 34 33 34 36 38 39 39 38
11 10 11 13 15 16 17 18 17 17 17 17 18 19 22 24 27 28 29 31 33 34 35 36 36 37 38 38 37 37 37 37 36 35 33 33 35 37 39 39 38 37
11 11 13 14 15 15 16 16 17 17 18 20 21 23 24 27 29 30 32 34 35 35 36 37 38 38 38 38 37 36 38 38 37 35 33 33 35 38 39 39 38 38
11 11 13 14 14 15 16 16 18 19 21 23 25 26 28 29 31 32 35 37 38 38 39 40 41 41 41 40 38 38 38 39 39 36 34 34 36 37 38 38 38 39
15 15 16 16 17 17 18 19 21 22 24 25 27 29 30 31 33 35 37 40 41 42 43 43 44 45 45 43 40 38 38 39 39 36 33 34 35 37 38 38 38 39
19 19 20 19 19 20 21 22 24 26 27 28 30 31 33 34 35 37 39 41 44 45 46 46 47 48 49 45 39 36 36 37 37 35 34 35 35 36 37 37 37 39
19 19 20 20 20 22 23 25 27 29 30 32 33 34 35 36 37 39 41 43 45 47 48 49 50 51 50 46 39 35 35 35 35 35 35 35 35 35 36 37 38 40
17 18 19 21 23 24 26 28 30 32 34 35 36 37 38 38 39 40 42 44 46 47 48 49 51 51 49 45 40 37 35 33 33 33 34 35 35 35 36 37 38 39
18 20 22 24 26 28 30 32 34 36 37 39 40 41 42 42 42 42 44 46 46 47 48 48 50 50 46 43 40 37 35 32 31 31 33 35 35 35 36 37 37 39
22 25 27 28 30 32 33 35 37 39 41 43 45 46 48 48 46 46 48 48 47 47 47 47 48 48 44 40 38 36 34 32 31 31 33 35 36 37 36 37 38 39
27 29 31 33 34 35 36 38 40 41 44 46 47 49 54 54 48 45 45 43 42 43 44 44 46 46 43 39 37 35 34 33 33 34 35 36 37 37 37 38 39 39
30 33 35 36 37 38 39 41 42 43 46 48 47 49 52 50 44 42 42 39 39 41 42 43 44 44 41 38 37 37 36 36 35 36 36 36 37 37 38 39 40 40
Wind_Direction
254 257 260 264 265 266 266 265 266 269 274 282 290 292 293 295 300 305 309 311 312 312 312 314 315 315 315 314 313 312 310 308 309 310 309 307 305 304 303 304 305 303
252 255 257 262 265 265 264 264 265 269 275 284 291 292 295 299 303 307 311 313 315 315 316 318 317 315 314 313 313 312 310 308 307 307 307 306 305 302 299 298 302 305
250 251 256 262 264 263 263 265 266 272 280 287 291 295 299 303 305 308 311 314 315 316 317 319 320 318 315 314 313 312 310 307 304 305 307 308 306 303 298 294 296 302
247 249 255 260 262 262 263 265 270 279 285 290 295 299 303 305 306 307 309 311 313 316 317 318 321 321 316 312 310 308 309 309 307 306 308 309 307 305 301 296 294 298
243 248 255 259 260 260 263 267 274 282 287 293 298 300 301 301 302 307 311 314 315 315 315 315 318 320 319 316 312 307 304 305 306 307 307 308 307 305 302 299 298 300
243 249 255 257 258 260 264 271 278 284 289 292 294 293 291 293 300 310 316 317 316 314 313 313 316 320 323 324 321 315 309 307 307 308 308 307 307 306 305 305 304 304
246 251 254 256 258 261 268 277 283 288 289 288 288 288 289 295 306 314 316 315 315 314 311 312 313 316 320 323 322 320 318 314 312 310 307 306 306 306 307 308 306 305
250 252 254 256 259 265 274 280 283 285 285 286 290 294 299 307 314 319 320 319 318 316 313 313 312 312 314 317 318 318 317 315 311 307 304 304 304 304 305 308 308 306
251 252 253 255 262 270 276 278 280 283 285 289 296 302 309 317 322 325 325 322 319 316 314 313 313 313 313 313 315 315 314 313 309 304 301 301 302 304 306 309 309 307
249 250 252 257 265 270 272 276 283 288 291 294 300 307 312 317 319 318 316 314 313 313 313 314 315 315 313 313 315 315 313 310 306 301 299 299 300 302 305 308 308 305
250 251 254 261 266 267 271 279 286 291 295 298 302 307 311 312 311 311 311 311 311 311 312 313 313 312 311 312 314 314 312 309 304 299 296 295 296 298 301 304 304 302
253 253 258 263 265 267 273 279 284 290 296 300 303 306 308 309 310 310 310 311 311 311 311 312 312 314 315 315 315 315 312 309 305 298 296 297 298 298 299 301 302 303
254 256 261 264 265 269 273 277 281 286 290 296 302 304 306 308 309 312 314 316 317 318 319 320 321 322 320 317 316 314 311 308 305 302 302 304 303 301 301 301 301 304
255 257 259 261 264 269 273 274 279 283 284 289 299 304 307 310 314 319 322 324 325 325 326 326 326 325 321 316 313 309 305 300 298 300 304 305 303 301 301 301 302 303
254 256 256 259 263 268 271 274 279 282 284 291 300 305 309 313 319 324 326 324 324 325 326 326 326 323 319 316 312 307 300 295 293 297 301 300 299 300 300 301 302 301
251 255 255 256 260 266 272 278 283 287 291 296 300 303 307 310 314 318 319 319 320 323 325 325 325 322 318 315 312 305 297 295 295 295 296 296 296 296 298 300 300 298
253 255 252 253 260 269 278 286 292 296 300 302 302 303 304 306 308 310 313 315 318 322 324 323 323 322 318 315 311 302 295 295 296 295 292 292 292 293 295 298 298 295
253 252 250 256 267 278 286 294 299 303 305 305 305 305 305 306 308 310 311 313 316 319 320 320 320 320 319 316 308 299 294 294 295 292 289 290 291 293 294 295 295 294
251 256 260 266 276 285 291 297 301 303 304 304 304 304 305 306 308 309 309 311 313 316 317 317 318 318 319 316 306 297 295 295 292 289 287 289 292 293 292 291 293 294
257 263 268 273 280 288 292 297 299 301 302 303 303 303 303 304 305 306 308 309 310 312 314 315 317 318 319 316 305 295 295 295 291 289 289 291 291 290 290 291 293 295
264 268 274 279 284 288 293 298 299 300 302 302 301 301 301 302 302 303 304 305 307 308 310 312 315 316 317 315 307 298 296 296 293 290 289 290 290 289 291 294 295 296
267 273 279 284 287 291 296 299 299 299 299 298 298 298 297 296 297 298 300 301 303 305 306 309 311 313 314 315 311 305 301 298 294 289 287 287 288 289 291 293 294 296
270 277 283 286 289 294 297 297 298 298 297 296 296 295 295 293 294 297 299 299 300 302 304 305 307 309 312 314 311 306 302 298 294 291 289 288 288 289 292 294 295 296
277 282 286 288 291 294 295 296 298 298 298 298 298 298 297 294 293 296 296 295 296 299 301 302 303 306 311 312 309 304 300 297 295 292 291 290 291 293 296 297 298 299
282 285 287 289 290 292 294 296 299 300 300 301 300 302 300 294 292 297 298 294 294 296 298 300 302 305 309 310 306 302 300 299 297 295 293 293 294 297 300 300 301 302
283 284 285 287 289 291 294 296 297 298 298 298 299 303 304 298 295 301 303 299 298 298 299 300 300 302 306 306 303 302 302 301 299 298 297 298 300 302 303 303 303 303
Height
5905 5906 5906 5906 5905 5905 5906 5906 5907 5907 5908 5908 5909 5909 5909 5909 5909 5909 5909 5908 5907 5907 5906 5905 5904 5903 5902 5901 5900 5899 5898 5898 5897 5896 5895 5895 5894 5893 5892 5891 5889 5888
5904 5904 5904 5904 5903 5903 5904 5904 5905 5906 5907 5907 5908 5908 5908 5908 5908 5907 5907 5906 5905 5904 5903 5903 5901 5900 5899 5899 5898 5897 5895 5894 5894 5893 5892 5891 5891 5890 5888 5887 5885 5884
5902 5902 5902 5901 5901 5902 5902 5903 5904 5905 5906 5906 5906 5906 5906 5906 5906 5905 5904 5904 5903 5902 5901 5900 5899 5897 5896 5895 5895 5893 5892 5891 5890 5889 5888 5887 5886 5885 5884 5882 5881 5880
5900 5900 5900 5899 5899 5900 5900 5901 5903 5904 5904 5904 5905 5905 5905 5905 5904 5903 5902 5902 5901 5900 5899 5898 5897 5895 5893 5892 5891 5890 5889 5887 5886 5886 5885 5883 5882 5880 5879 5878 5877 5876
5898 5897 5898 5897 5898 5898 5899 5900 5902 5903 5903 5903 5903 5903 5903 5902 5901 5901 5900 5900 5899 5898 5897 5896 5895 5893 5891 5889 5887 5886 5885 5884 5884 5883 5881 5880 5878 5876 5875 5874 5873 5871
5895 5895 5895 5895 5896 5897 5898 5899 5901 5901 5901 5901 5901 5900 5900 5899 5898 5898 5898 5897 5896 5895 5894 5893 5892 5891 5889 5887 5884 5883 5882 5881 5880 5879 5878 5876 5874 5872 5871 5870 5869 5867
5893 5893 5893 5894 5894 5896 5897 5898 5899 5899 5899 5899 5898 5898 5897 5896 5896 5896 5895 5894 5893 5892 5891 5890 5889 5888 5887 5885 5883 5881 5880 5879 5877 5875 5873 5872 5870 5868 5867 5866 5865 5863
5891 5891 5892 5892 5893 5895 5896 5896 5897 5897 5897 5896 5896 5895 5894 5894 5893 5893 5892 5891 5891 5889 5888 5888 5887 5885 5884 5883 5881 5879 5877 5876 5874 5872 5870 5868 5866 5865 5864 5862 5861 5859
5889 5889 5890 5891 5893 5894 5894 5894 5894 5894 5894 5894 5893 5892 5891 5891 5890 5890 5889 5889 5888 5887 5886 5885 5884 5882 5881 5880 5879 5877 5875 5873 5871 5869 5866 5864 5863 5861 5860 5859 5858 5856
5887 5888 5889 5890 5892 5892 5892 5892 5892 5891 5891 5891 5891 5890 5889 5889 5888 5888 5887 5886 5886 5885 5883 5882 5880 5879 5877 5876 5875 5874 5872 5870 5868 5865 5863 5861 5859 5857 5856 5855 5854 5853
5885 5886 5888 5889 5890 5890 5890 5890 5889 5889 5888 5888 5888 5887 5887 5886 5885 5885 5884 5883 5882 5882 5880 5879 5877 5876 5874 5873 5871 5870 5869 5867 5864 5862 5859 5857 5856 5854 5852 5851 5850 5849
5883 5885 5887 5888 5888 5888 5888 5887 5887 5887 5886 5885 5884 5884 5884 5884 5883 5882 5881 5880 5879 5878 5877 5876 5875 5873 5871 5869 5867 5865 5864 5862 5860 5858 5856 5854 5853 5851 5849 5847 5845 5845
5882 5884 5885 5885 5885 5885 5885 5885 5885 5886 5885 5883 5882 5881 5881 5881 5881 5880 5879 5877 5876 5874 5873 5872 5871 5870 5868 5865 5863 5861 5859 5857 5856 5854 5852 5851 5849 5847 5845 5843 5842 5841
5880 5882 5883 5883 5883 5883 5883 5883 5883 5883 5883 5882 5881 5879 5878 5878 5878 5878 5876 5874 5873 5872 5871 5870 5868 5867 5865 5863 5861 5858 5856 5854 5852 5851 5849 5847 5845 5843 5841 5840 5839 5837
5878 5880 5881 5881 5880 5880 5880 5881 5881 5880 5880 5880 5879 5878 5876 5875 5874 5874 5873 5872 5871 5870 5869 5867 5866 5864 5862 5860 5859 5856 5853 5851 5850 5849 5847 5844 5842 5840 5838 5837 5835 5834
5876 5877 5878 5878 5878 5878 5878 5878 5878 5877 5877 5877 5877 5876 5874 5873 5871 5871 5871 5870 5869 5868 5866 5864 5863 5861 5859 5857 5855 5852 5849 5847 5846 5845 5844 5841 5839 5836 5834 5833 5831 5829
5874 5875 5876 5876 5876 5876 5875 5875 5875 5874 5874 5873 5873 5873 5872 5871 5869 5868 5867 5866 5866 5865 5863 5861 5860 5858 5856 5854 5852 5848 5845 5844 5843 5842 5840 5838 5835 5833 5830 5829 5827 5825
5872 5873 5873 5873 5873 5873 5872 5872 5871 5871 5870 5870 5870 5870 5869 5868 5866 5864 5863 5861 5860 5860 5859 5857 5856 5855 5853 5850 5848 5844 5841 5839 5839 5838 5836 5834 5832 5829 5827 5824 5822 5820
5869 5870 5871 5871 5870 5870 5869 5869 5868 5867 5867 5867 5867 5867 5866 5864 5862 5861 5859 5857 5856 5854 5853 5852 5851 5850 5848 5846 5843 5839 5836 5834 5833 5832 5831 5830 5828 5825 5822 5820 5818 5816
5867 5867 5867 5867 5867 5867 5866 5866 5865 5865 5864 5864 5864 5863 5862 5860 5859 5857 5856 5854 5852 5850 5848 5846 5845 5843 5841 5839 5837 5834 5831 5829 5828 5827 5826 5825 5822 5820 5818 5817 5815 5812
5864 5864 5864 5864 5864 5864 5863 5863 5862 5862 5861 5861 5860 5859 5858 5856 5855 5853 5852 5850 5849 5847 5844 5842 5840 5838 5835 5832 5831 5829 5827 5825 5823 5822 5822 5821 5818 5816 5814 5813 5811 5809
5860 5861 5861 5861 5861 5860 5860 5860 5859 5858 5858 5857 5856 5854 5853 5851 5850 5849 5848 5847 5845 5843 5841 5839 5837 5834 5831 5827 5825 5824 5823 5822 5820 5819 5818 5816 5814 5813 5811 5809 5807 5805
5857 5858 5858 5858 5857 5857 5856 5856 5855 5854 5853 5852 5851 5850 5848 5847 5846 5846 5845 5843 5841 5839 5837 5835 5832 5830 5827 5824 5821 5820 5819 5818 5817 5815 5813 5812 5810 5809 5807 5805 5803 5801
5854 5854 5854 5854 5853 5853 5852 5852 5851 5850 5849 5848 5847 5846 5845 5844 5843 5841 5840 5839 5837 5835 5832 5830 5827 5825 5823 5821 5819 5817 5816 5814 5813 5811 5809 5808 5806 5804 5802 5800 5798 5796
5850 5850 5850 5849 5849 5849 5849 5848 5847 5847 5846 5844 5843 5842 5841 5840 5838 5836 5834 5833 5831 5829 5827 5825 5823 5821 5819 5817 5816 5814 5812 5810 5809 5807 5806 5804 5802 5800 5798 5796 5794 5792
5846 5846 5845 5845 5845 5845 5844 5844 5843 5842 5841 5839 5838 5837 5835 5833 5832 5831 5828 5827 5825 5823 5822 5820 5818 5817 5815 5814 5812 5810 5808 5807 5805 5804 5802 5799 5797 5795 5793 5791 5789 5787